TimeMDT,TemperatureF,Dew PointF,Humidity,Sea Level PressureIn,VisibilityMPH,Wind Direction,Wind SpeedMPH,Gust SpeedMPH,PrecipitationIn,Events,Conditions,WindDirDegrees,DateUTC
12:53 AM,28.0,21.0,75,30.26,10.0,Calm,Calm,-,N/A,,Clear,0,2013-03-12 06:53:00
1:53 AM,26.1,19.9,78,30.27,10.0,Calm,Calm,-,N/A,,Clear,0,2013-03-12 07:53:00
2:53 AM,25.0,19.0,78,30.26,10.0,Calm,Calm,-,N/A,,Clear,0,2013-03-12 08:53:00
3:53 AM,23.0,18.0,81,30.27,10.0,Calm,Calm,-,N/A,,Clear,0,2013-03-12 09:53:00
4:53 AM,21.9,18.0,85,30.27,10.0,NE,3.5,-,N/A,,Clear,50,2013-03-12 10:53:00
5:53 AM,21.9,18.0,85,30.28,10.0,ENE,4.6,-,N/A,,Clear,70,2013-03-12 11:53:00
6:53 AM,19.9,16.0,85,30.30,10.0,Calm,Calm,-,N/A,,Clear,0,2013-03-12 12:53:00
7:53 AM,18.0,14.0,84,30.35,10.0,NE,4.6,-,N/A,,Clear,50,2013-03-12 13:53:00
8:53 AM,19.9,15.1,81,30.38,10.0,ENE,4.6,-,N/A,,Mostly Cloudy,60,2013-03-12 14:53:00
9:53 AM,25.0,18.0,75,30.36,10.0,NE,4.6,-,N/A,,Mostly Cloudy,40,2013-03-12 15:53:00
10:53 AM,28.9,19.0,67,30.37,10.0,East,3.5,-,N/A,,Overcast,80,2013-03-12 16:53:00
11:53 AM,32.0,23.0,69,30.36,10.0,Calm,Calm,-,N/A,,Overcast,0,2013-03-12 17:53:00
12:53 PM,35.1,24.1,64,30.36,10.0,NE,3.5,-,N/A,,Overcast,40,2013-03-12 18:53:00
1:53 PM,37.0,26.1,65,30.35,10.0,Calm,Calm,-,N/A,,Mostly Cloudy,0,2013-03-12 19:53:00
2:53 PM,37.9,27.0,65,30.33,10.0,East,6.9,-,N/A,,Clear,80,2013-03-12 20:53:00
3:53 PM,37.9,27.0,65,30.32,10.0,East,5.8,-,N/A,,Clear,90,2013-03-12 21:53:00
4:53 PM,39.0,28.0,65,30.31,10.0,East,4.6,-,N/A,,Scattered Clouds,80,2013-03-12 22:53:00
5:53 PM,37.9,28.0,68,30.30,10.0,ENE,5.8,-,N/A,,Partly Cloudy,70,2013-03-12 23:53:00
6:53 PM,37.0,28.9,73,30.30,10.0,East,5.8,-,N/A,,Overcast,80,2013-03-13 00:53:00
7:53 PM,36.0,30.0,79,30.32,10.0,Calm,Calm,-,N/A,,Overcast,0,2013-03-13 01:53:00
8:53 PM,37.0,30.0,76,30.32,10.0,Calm,Calm,-,N/A,,Overcast,0,2013-03-13 02:53:00
9:53 PM,35.1,30.0,82,30.31,10.0,Calm,Calm,-,N/A,,Mostly Cloudy,0,2013-03-13 03:53:00
10:53 PM,34.0,28.9,82,30.30,10.0,Calm,Calm,-,N/A,,Mostly Cloudy,0,2013-03-13 04:53:00
11:53 PM,33.1,28.9,85,30.31,10.0,Calm,Calm,-,N/A,,Mostly Cloudy,0,2013-03-13 05:53:00